Location: Sternwarte_Laufen
(47.9344°N, 12.9346°E)
Time: 19:16:14
(UTC+01:00)

ISS - Pass Details

Date: 27 May 2017
Orbit: 401 x 407 km, 51.6° (Epoch: 25 November)

Event Time Altitude Azimuth Distance (km) Brightness Sun altitude
Rises 02:29:08 0° 293° (WNW) 2,355 0.1 -18.3°
Reaches altitude 10° 02:31:15 10° 291° (WNW) 1,487 -1.0 -18.1°
Maximum altitude 02:34:34 71° 208° (SSW) 438 -4.0 -17.9°
Drops below altitude 10° 02:37:51 10° 123° (ESE) 1,468 -1.1 -17.7°
Sets 02:39:55 0° 121° (ESE) 2,323 -0.1 -17.6°
